This is the latest recevied weather packets stored in our database for station/object N0NPO. If no packets are shown the sender has not sent any weather packets the latest 10 day(s).
| Time | Temp. | Humidity | Pressure | Rain* | Wind** | Luminosity | Snow |
|---|---|---|---|---|---|---|---|
| 1778251413 | 13.89° C | 1% | 1012.9 hPa | 0 mm | - | 389 W/m² | - |
| 1778251111 | 13.89° C | 1% | 1012.9 hPa | 0 mm | - | 368 W/m² | - |
| 1778250807 | 13.33° C | 1% | 1013 hPa | 0 mm | - | 390 W/m² | - |
| 1778250504 | 12.78° C | 1% | 1012.9 hPa | 0 mm | - | 349 W/m² | - |
| 1778250201 | 12.22° C | 1% | 1012.7 hPa | 0 mm | - | 345 W/m² | - |
| 1778249897 | 12.22° C | 1% | 1012.9 hPa | 0 mm | - | 335 W/m² | - |
| 1778249595 | 12.22° C | 1% | 1012.9 hPa | 0 mm | - | 296 W/m² | - |
| 1778249292 | 11.67° C | 1% | 1012.9 hPa | 0 mm | - | 240 W/m² | - |
| 1778248989 | 11.11° C | 1% | 1012.9 hPa | 0 mm | - | 234 W/m² | - |
| 1778248684 | 10.56° C | 1% | 1013 hPa | 0 mm | - | 247 W/m² | - |
| 1778248381 | 10° C | 1% | 1013 hPa | 0 mm | - | 224 W/m² | - |
| 1778248076 | 9.44° C | 1% | 1013.1 hPa | 0 mm | - | 253 W/m² | - |
| 1778247774 | 8.33° C | 1% | 1013.1 hPa | 0 mm | - | 209 W/m² | - |
| 1778247471 | 8.33° C | 1% | 1012.9 hPa | 0 mm | - | 65 W/m² | - |
| 1778247168 | 8.33° C | 1% | 1012.9 hPa | 0 mm | - | 78 W/m² | - |
| 1778246866 | 8.33° C | 1% | 1013.2 hPa | 0 mm | - | 94 W/m² | - |
| 1778246563 | 7.78° C | 1% | 1013 hPa | 0 mm | - | 206 W/m² | - |
| 1778246259 | 7.78° C | 1% | 1013 hPa | 0 mm | - | 126 W/m² | - |
| 1778245955 | 7.78° C | 1% | 1013 hPa | 0 mm | - | 166 W/m² | - |
| 1778245651 | 7.22° C | 1% | 1013.1 hPa | 0 mm | - | 133 W/m² | - |
| 1778245349 | 7.22° C | 1% | 1012.9 hPa | 0 mm | - | 133 W/m² | - |
| 1778245045 | 6.67° C | 1% | 1012.9 hPa | 0 mm | - | 119 W/m² | - |
| 1778244741 | 6.67° C | 1% | 1012.7 hPa | 0 mm | - | 111 W/m² | - |
| 1778244439 | 5.56° C | 1% | 1012.4 hPa | 0 mm | - | 77 W/m² | - |
| 1778244136 | 5.56° C | 1% | 1012.4 hPa | 0 mm | - | 81 W/m² | - |
* Rain latest hour (hover to see other rain measurements)
** Current wind speed in m/s (hover to see current wind gust speed)